Location: ????
(30.1475°N, 31.1342°E)
Time: 06:55:18
(UTC+00:00)

Cosmos 2016 Rocket - Pass Details

Date: 27 September 2022
Orbit: 946 x 1001 km, 83.0° (Epoch: 28 November)

Event Time Altitude Azimuth Distance (km) Brightness Sun altitude
Rises 02:35:14 0° 179° (S) 3,675 7.0 -16.2°
Reaches altitude 10° 02:37:44 10° 177° (S) 2,737 6.3 -15.6°
Maximum altitude 02:44:00 74° 93° (E) 1,034 4.3 -14.3°
Drops below altitude 10° 02:50:21 10° 10° (N) 2,773 6.6 -12.9°
Sets 02:52:54 0° 8° (N) 3,727 7.2 -12.4°
